Regional Weather Roundup
Issued by NWS

Home | Current Version | Previous Version | Text Only | Print | Product List | Glossary Off
Versions: 1 2 3 4 5 6 7 8 9 10 11 12 13 14 15 16 17 18 19 20 21 22 23 24 25 26 27 28 29 30 31 32 33 34 35 36 37 38 39 40 41 42 43 44 45 46 47 48 49 50

000
ASUS43 KOAX 230302
RWRNE

WEATHER ROUNDUP FOR NEBRASKA
NATIONAL WEATHER SERVICE OMAHA NE
1000 PM CDT FRI MAY 22 2015

NOTES: SATELLITE DATA IS BEING USED TO AUGMENT CLOUD COVER ABOVE
       12000 FEET.
       "FAIR" INDICATES FEW OR NO CLOUDS BELOW 12,000 FEET WITH NO
       SIGNIFICANT WEATHER AND/OR OBSTRUCTIONS TO VISIBILITY.

  * THESE STATIONS DO NOT REPORT WEATHER SUCH AS RAIN...SNOW OR FOG.

NEZ001>004-019>022-054>056-230400-
NEBRASKA PANHANDLE

CITY           SKY/WX    TMP DP  RH WIND       PRES   REMARKS
SCOTTSBLUFF    CLOUDY    47  45  93 SE16      30.07R
ALLIANCE       CLOUDY    46  44  93 SE15      30.08R
CHADRON        CLOUDY    49  44  83 E5        30.08S
KIMBALL          N/A    N/A N/A N/A MISG        N/A
SIDNEY         CLOUDY    45  44  97 E12       30.07R FOG
$$

NEZ057>060-069>072-079>082-230400-
SOUTHWEST NEBRASKA

CITY           SKY/WX    TMP DP  RH WIND       PRES   REMARKS
NORTH PLATTE   LGT RAIN  49  47  93 E13       30.09F
IMPERIAL       CLOUDY    49  48  97 SE16      30.04S
LEXINGTON      CLOUDY    52  51  97 SE12      30.11S FOG
MCCOOK         CLOUDY    52  51  97 E13       30.07S FOG
OGALLALA       LGT RAIN  47  47  99 E12       30.07S
$$

NEZ005>010-023>029-035>040-094-230400-
NORTH CENTRAL NEBRASKA

CITY           SKY/WX    TMP DP  RH WIND       PRES   REMARKS
VALENTINE      CLOUDY    49  43  80 SE10      30.15R
AINSWORTH      DRIZZLE   47  46  94 SE6       30.15S
BROKEN BOW     LGT RAIN  50  48  93 E10       30.13S FOG
O`NEILL        DRIZZLE   51  49  94 SE7       30.18R
ORD            LGT RAIN  49  48  97 E7        30.15S FOG
$$

NEZ041-046>049-061>064-073>077-083>087-230400-
SOUTH CENTRAL NEBRASKA

CITY           SKY/WX    TMP DP  RH WIND       PRES   REMARKS
GRAND ISLAND   CLOUDY    54  48  80 SE12      30.15F
AURORA         CLOUDY    56  47  73 SE7       30.16R
HASTINGS       CLOUDY    53  51  93 SE7       30.15R
HEBRON         CLOUDY    58  49  70 SE6       30.16R
HOLDREGE       CLOUDY    52  50  95 SE15      30.11S FOG
KEARNEY *      CLOUDY    52  48  87 SE15      30.13S
$$

NEZ011>018-030>034-042>045-230400-
NORTHEAST NEBRASKA

CITY           SKY/WX    TMP DP  RH WIND       PRES   REMARKS
NORFOLK        CLOUDY    53  51  93 E3        30.17S
ALBION         DRIZZLE   52  49  91 NE3       30.17S
BLAIR          CLOUDY    60  46  58 SE6       30.18F
COLUMBUS *     CLOUDY    57  45  62 S6        30.20S
FREMONT        CLOUDY    61  46  56 SE7       30.18S
TEKAMAH        CLOUDY    59  51  75 SE3       30.18R
WAYNE          LGT RAIN  54  50  86 SE3       30.19S
$$

NEZ050>053-065>068-078-088>093-230400-
SOUTHEAST NEBRASKA

CITY           SKY/WX    TMP DP  RH WIND       PRES   REMARKS
LINCOLN        CLOUDY    61  46  57 SE8       30.18S
OMAHA EPPLEY   CLOUDY    61  48  62 SE7       30.19R
BEATRICE       CLOUDY    59  45  59 SE12      30.18R
FALLS CITY     CLOUDY    59  49  69 S5        30.19R
NEBRASKA CITY  CLOUDY    60  45  57 SE6       30.19S
PLATTSMOUTH    CLOUDY    60  46  61 SE5       30.19S
$$

NEZ044-045-051>053-067-230400-
OMAHA AREA

CITY           SKY/WX    TMP DP  RH WIND       PRES   REMARKS
OMAHA EPPLEY   CLOUDY    61  48  62 SE7       30.19R
BLAIR          CLOUDY    60  46  58 SE6       30.18F
FREMONT        CLOUDY    61  46  56 SE7       30.18S
MILLARD        CLOUDY    62  49  63 SE5       30.18S
OFFUTT AFB     MOCLDY    59  51  75 E5        30.18R
PLATTSMOUTH    CLOUDY    60  46  61 SE5       30.19S
WAHOO          CLOUDY    60  48  64 SE8       30.17S
$$


USA.gov is the U.S. government's official web portal to all federal, state and local government web resources and services.